Location: İstanbul
(41.0082°N, 28.9784°E)
Time: 01:52:17
(UTC+03:00)

NOAA 15 - Visible Passes

Search period start: 25 April 2024 00:00
Search period end: 05 May 2024 00:00
Orbit: 795 x 811 km, 98.6° (Epoch: 24 April)

Date Brightness Start Highest point End Pass type
(mag) Time Alt. Az. Time Alt. Az. Time Alt. Az.
26 Apr 7.3 21:15:59 10° SW 21:19:07 16° W 21:22:18 10° NW visible
27 Apr 6.7 20:48:45 10° SSW 20:53:12 27° W 20:57:40 10° NW visible
28 Apr 5.7 20:22:20 10° S 20:27:23 47° W 20:32:27 10° NNW visible
30 Apr 7.2 21:12:48 10° SW 21:16:08 17° W 21:19:29 10° NW visible
01 May 6.6 20:45:42 10° SSW 20:50:13 29° W 20:54:46 10° NW visible
04 May 7.2 21:09:36 10° SW 21:13:07 18° W 21:16:39 10° NW visible
